Terug naar catalogus

FREGAT DEB

LostHEO
NORAD 46412·DEBRIS·🇷🇺 Russia

Gelanceerd Jul 18, 2011 vanaf Baikonur Cosmodrome

Loading…

Volgende Passages (komende 24 uur)

TLE

VerouderdSource: Space-Track

Epoch: Sep 8, 2020, 07:20 UTC

1 46412U 11037LT  20252.30614214  .00354310  00000-0  11622+0 0  9998
2 46412  50.8758 213.8848 2534072 163.5002 206.6613  9.93486686   706

Volg FREGAT DEB in realtime met AllMySat

Download on the App Store